Scottsbluff, NE

5:21 PM MST on November 21, 2019 (GMT -0700)
Heilig

Weather History for KBFF - July, 2019

Change the Weather History Date:

Thursday, July 18, 2019

  Actual Average Record
Temperature  
Mean Temperature 82 °F -  
Max Temperature 102 °F 90 °F 104 °F (1998)
Min Temperature 61 °F 59 °F 48 °F (1906)
Cooling Degree Days 16    
Growing Degree Days 32 (Base 50)    
Moisture  
Dew Point 49 °F    
Average Humidity 32    
Maximum Humidity 80    
Minimum Humidity 6    
Precipitation  
Precipitation 0.00 in - - ()
Sea Level Pressure  
Sea Level Pressure 29.67 in    
Wind  
Wind Speed 6 mph (WNW)    
Max Wind Speed 13 mph    
Max Gust Speed 23 mph    
Visibility 10 miles    
Events      
Averages and records for this station are not official NWS values.
T = Trace of Precipitation, MM = Missing Value Source: NWS Daily Summary

Daily Weather History Graph

Daily Weather History Graph

Search for Another Location

Airport or City:

Astronomy

Jul. 18, 2019 Rise Set
Actual Time 5:34 AM MDT 8:25 PM MDT
Civil Twilight 5:01 AM MDT 8:58 PM MDT
Nautical Twilight 4:20 AM MDT 9:40 PM MDT
Astronomical Twilight 3:32 AM MDT 10:28 PM MDT
Moon 9:51 PM MDT (7/18) 7:06 AM MDT (7/18)
Length of Visible Light 15h 56m
Length of Day
14h 51m
Full, 97% of the Moon is Illuminated
Jul 18
Full
Jul 24
Last Quarter
Jul 31
New
Aug 7
First Quarter
Aug 15
Full

Hourly Weather History & Observations

Time (MDT) Temp. Heat Index Dew Point Humidity Pressure Visibility Wind Dir Wind Speed Gust Speed Precip Events Conditions
12:53 AM 70.0 °F - - N/A% 29.71 in 10.0 mi North - - N/A   Clear
1:53 AM 66.9 °F - - N/A% 29.71 in 10.0 mi Calm Calm - N/A   Clear
2:53 AM 64.0 °F - - N/A% 29.70 in 10.0 mi NNW 6.9 mph - N/A   Clear
3:53 AM 63.0 °F - - N/A% 29.71 in 10.0 mi North 5.8 mph - N/A   Clear
4:53 AM 63.0 °F - - N/A% 29.71 in 10.0 mi NW 6.9 mph - N/A   Clear
5:53 AM 61.0 °F - - N/A% 29.73 in 10.0 mi WNW 6.9 mph - N/A   Clear
6:53 AM 64.9 °F - - N/A% 29.73 in 10.0 mi NNW 8.1 mph - N/A   Clear
7:53 AM 71.1 °F - - N/A% 29.74 in 10.0 mi WNW 4.6 mph - N/A   Clear
8:53 AM 77.0 °F - - N/A% 29.73 in 10.0 mi WNW 6.9 mph - N/A   Unknown
9:05 AM 78.1 °F - - N/A% 29.88 in 10.0 mi NW 6.9 mph - N/A   Scattered Clouds
9:53 AM 81.0 °F - - N/A% 29.73 in 10.0 mi NNW 8.1 mph - N/A   Clear
10:53 AM 87.1 °F - - N/A% 29.71 in 10.0 mi WNW 5.8 mph - N/A   Clear
11:53 AM 91.9 °F - - N/A% 29.68 in 10.0 mi WNW 5.8 mph - N/A   Clear
1:53 PM 99.0 °F - 46.0 °F 16% 29.63 in 10.0 mi West 10.4 mph 20.7 mph N/A   Clear
2:53 PM 100.9 °F - 44.1 °F 14% 29.60 in 10.0 mi WNW 9.2 mph 23.0 mph N/A   Clear
3:53 PM 102.0 °F - 42.1 °F 13% 29.60 in 10.0 mi West 9.2 mph - N/A   Clear
4:53 PM 100.9 °F - 44.1 °F 14% 29.59 in 10.0 mi West 12.7 mph - N/A   Clear
5:53 PM 99.0 °F - 46.9 °F 17% 29.59 in 10.0 mi West 11.5 mph - N/A   Clear
6:53 PM 93.9 °F - 52.0 °F 24% 29.60 in 10.0 mi WSW 6.9 mph - N/A   Clear
7:53 PM 87.1 °F 86.7 °F 60.1 °F 40% 29.60 in 10.0 mi South 4.6 mph - N/A   Clear
8:53 PM 81.0 °F 80.8 °F 55.9 °F 42% 29.61 in 10.0 mi SSE 5.8 mph - N/A   Clear
9:53 PM 78.1 °F - 55.0 °F 45% 29.63 in 10.0 mi SE 8.1 mph - N/A   Clear
10:53 PM 70.0 °F - 57.9 °F 65% 29.63 in 10.0 mi NE 5.8 mph - N/A   Clear
11:53 PM 64.0 °F - 57.9 °F 80% 29.65 in 10.0 mi North 5.8 mph - N/A   Clear